sat.trackr.live / text

‹ back to catalog

STARLINK-37188

NORAD 68404 · 2026-063AA

PAYLOAD ACTIVE UNKNOWN

§ Identity

Operator
Country
US
Launch date
2026-03-26
Launch site
AFWTR
Launch vehicle
Mass (kg)
RCS (m²)

Purposes: comms

External: N2YO · Heavens-Above · Gunter

§ Orbital elements

Epoch: 2026-05-25T03:05:53.725056Z

Period
93.90 min
Inclination
97.2850°
Eccentricity
0.0000572
Mean motion
15.33488979 rev/d
Perigee alt
465.0 km
Apogee alt
465.8 km
Semi-major
6,843.5 km
B*
8.0942e-4
RAAN
287.7524°
Arg perigee
257.8605°
Mean anomaly
102.2574°
Rev number
961

§ Raw data

STARLINK-371881 68404U 26063AA  26145.12909404  .00026183  00000+0  80942-3 0  99912 68404  97.2850 287.7524 0000572 257.8605 102.2574 15.33488979  9611

JSON: /api/v1/satellites/68404 · /tle

For live sub-satellite position, see the globe view (requires WebGL).

§ Visibility from observer

Set your observer location to see the next 7 days of passes ≥ 10°. The values pass through the URL so the page stays shareable.

No JS? Fill the form by hand. The geolocation button needs JavaScript.